Regional Weather Roundup
Issued by NWS

Home | Current Version | Previous Version | Graphics & Text | Print | Product List | Glossary On
Versions: 1 2 3 4 5 6 7 8 9 10 11 12 13 14 15 16 17 18 19 20 21 22 23 24 25 26 27 28 29 30 31 32 33 34 35 36 37 38 39 40 41 42 43 44 45 46 47 48 49 50
000
ASUS43 KTOP 251008
RWRKS

WEATHER ROUNDUP FOR KANSAS
NATIONAL WEATHER SERVICE GOODLAND KS
400 AM CST SUN JAN 25 2015

NOTE:  "FAIR" INDICATES FEW OR NO CLOUDS BELOW 12,000 FEET WITH NO
SIGNIFICANT WEATHER AND/OR OBSTRUCTIONS TO VISIBILITY.

KSZ001>006-013>018-027>032-041>047-251100-
NORTHWEST KANSAS

CITY           SKY/WX    TMP DP  RH WIND       PRES   REMARKS
GOODLAND       PTCLDY    36  26  67 NW18      30.05R WCI  26
HAYS           CLEAR     43  25  49 NW23G31   29.94R
HILL CITY      PTCLDY    41  28  60 NW17G28   29.96R
RUSSELL        PTCLDY    44  31  60 NW25      29.89R
$$

KSZ061>065-074>080-084>089-251100-
SOUTHWEST KANSAS

CITY           SKY/WX    TMP DP  RH WIND       PRES   REMARKS
DODGE CITY     MOCLDY    44  26  49 NW23G30   30.00S
ELKHART          N/A    N/A N/A N/A MISG        N/A
GARDEN CITY    PTCLDY    41  25  53 N21G32    30.03R
GREAT BEND     PTCLDY    43  28  56 NW20      29.94R
LIBERAL        PTCLDY    41  25  52 NW13      30.08S
PRATT          CLEAR     43  30  61 NW17G24   29.95R
$$

KSZ066>073-081>083-090>101-251100-
SOUTHEAST KANSAS

CITY           SKY/WX    TMP DP  RH WIND       PRES   REMARKS
CHANUTE        CLOUDY    49  38  65 NW14      29.75R
COFFEYVILLE    CLOUDY    52  37  56 NW17      29.77R
HUTCHINSON     CLEAR     46  32  58 NW16G25   29.86S
MEDICINE LODGE   N/A     47  32  56 NW21G29   29.92R
NEWTON         CLEAR     45  28  53 NW20G29   29.83F
PARSONS        MOCLDY    51  38  60 NW14      29.77R
WICHITA INTL   CLEAR     49  31  49 NW23G30   29.84F
WICHITA JABRA  CLEAR     47  32  56 NW20G28   29.83S
WICHITA MCCONL CLEAR     48  32  53 NW22G29   29.84S
WINFIELD       MOCLDY    48  31  51 NW22G28   29.86R
$$

KSZ007>012-019>026-033>040-048>060-102>105-251100-
NORTHEAST KANSAS

CITY           SKY/WX    TMP DP  RH WIND       PRES   REMARKS
CONCORDIA      CLOUDY    44  36  73 NW22G38   29.81R
EMPORIA        PTCLDY    45  34  65 W17G28    29.74S
LAWRENCE       CLOUDY    44  38  79 NW9       29.68S
MANHATTAN      CLOUDY    47  34  60 NW17G28   29.76R
MARYSVILLE     CLOUDY    43  34  70 NW25G31   29.73S
OLATHE IND     PTCLDY    44  38  79 W14       29.66F
OLATHE EXE     PTCLDY    45  38  76 NW10G17   29.64F
SALINA         CLOUDY    47  33  58 NW23G30   29.81S
TOPEKA BILLARD CLOUDY    48  37  65 NW29G38   29.69S
TOPEKA FORBES  MOCLDY    48  37  65 W22G28    29.68F
$$


USA.gov is the U.S. government's official web portal to all federal, state and local government web resources and services.